Flag for Canada Weather past 2 weeks in Cumberland County, Nova Scotia, Canada

Now
38 °F

Chilly.


Feels Like: 33 °F
Forecast: 35 / 52 °F
Wind: 6 mph from Southwest

Location: Kentville

Current Time: Oct 21, 2014 at 6:05:46 AM

Latest Report: Oct 21, 2014 at 5:00 AM


Visibility: N/A

Pressure: 30.04 "Hg

Humidity: 78%

Dew point: 32 °F

Location of Cumberland CountyLocation

Historic Weather in Cumberland County — Graph

°F

Cumberland County temperature yesterday

Maximum temperature yesterday: 44 °F (at 5:00 PM)
Minimum temperature yesterday: 39 °F (at 4:00 AM)
Average temperature yesterday: 42 °F

Past Weeks' High & Low Weather Summary

 TemperatureHumidityPressure
High75 °F (Oct 15, 3:00 PM)100% (Oct 7, 8:00 AM)30.32 "Hg (Oct 7, 8:00 AM)
Low35 °F (Oct 13, 7:00 AM)36% (Oct 6, 4:00 PM)29.49 "Hg (Oct 19, 3:00 AM)
Average55 °F80%29.96 "Hg
* Reported Oct 6 5:00 AM — Oct 21 5:00 AM, Cumberland County, Weather by CustomWeather, © 2014

Note: Actual official high and low records may vary slightly from our data, if they occured in-between our weather recording intervals... More about our weather records

Advertising

Cumberland County weather history for previous 24 hours

 ConditionsComfort  
Time TempWeatherWind HumidityBarometerVisibility
5:00 AM
Oct 21
38 °FChilly.6 mph78%30.04 "HgN/A
4:00 AM38 °FChilly.5 mph78%30.01 "HgN/A
3:00 AM40 °FQuite cool.6 mph71%30.00 "HgN/A
2:00 AM40 °FChilly.6 mph73%29.99 "HgN/A
1:00 AM38 °FChilly.5 mph83%29.98 "HgN/A
12:00 AM40 °FChilly.5 mph80%29.96 "HgN/A
11:00 PM
Oct 20
41 °FQuite cool.5 mph77%29.96 "HgN/A
10:00 PM41 °FQuite cool.8 mph77%29.94 "HgN/A
9:00 PM42 °FQuite cool.8 mph75%29.92 "HgN/A
8:00 PM41 °FQuite cool.6 mph74%29.90 "HgN/A
7:00 PM42 °FQuite cool.8 mph71%29.89 "HgN/A
6:00 PM43 °FQuite cool.6 mph69%29.87 "HgN/A
5:00 PM44 °FQuite cool.14 mph62%29.85 "HgN/A
4:00 PM44 °FQuite cool.14 mph65%29.83 "HgN/A
3:00 PM44 °FQuite cool.14 mph66%29.83 "HgN/A
2:00 PM43 °FQuite cool.14 mph64%29.81 "HgN/A
1:00 PM43 °FQuite cool.13 mph71%29.81 "HgN/A
12:00 PM43 °FQuite cool.13 mph64%29.80 "HgN/A
11:00 AM42 °FQuite cool.14 mph62%29.80 "HgN/A
10:00 AM42 °FQuite cool.14 mph69%29.77 "HgN/A
9:00 AM41 °FQuite cool.14 mph69%29.75 "HgN/A
8:00 AM41 °FQuite cool.12 mph75%29.70 "HgN/A
7:00 AM40 °FQuite cool.8 mph85%29.68 "HgN/A
6:00 AM40 °FChilly.8 mph88%29.66 "HgN/A
Weather by CustomWeather, © 2014

See weather overviewHow to use our weather pages